Tracking 31027 objects as of 19-Jul-2025
HD Live streaming from Space Station
objects crossing your sky now

CZ-3A R/B

Track CZ-3A R/B now!


NORAD ID: 37385
Int'l Code: 2011-013B
Perigee: 1,463.5 km
Apogee: 30,097.7 km
Inclination: 55.6 °
Period: 546.8 minutes
Semi major axis: 22151 km
RCS: 9.99 m2 (large)
Launch date: April 9, 2011
Source: People's Republic of China (PRC)
Launch site: Xichang Space Center, China (XSC)

Note: This is a ROCKET BODY
Your satellite tracking list
Your tracking list is empty




NASA's NSSDC Master Catalog

Two Line Element Set (TLE):
1 37385U 11013B   25198.43976670 -.00000136  00000-0  00000-0 0  9990
2 37385  55.6045 301.7361 6463227 125.9738 312.4431  2.63327157136171
Source of the keplerian elements: AFSPC